{"data":{"norad_id":62640,"epoch":"2026-05-24T18:40:19.515360Z","epoch_age_seconds":87539,"freshness":"FRESH","line1":"1 62640U 25009AH  26144.77800365  .00007991  00000+0  27705-3 0  9996","line2":"2 62640  97.3595 226.1971 0003186  75.0345 285.1248 15.30077605 75341","mean_motion":15.30077605,"eccentricity":0.0003186,"inclination_deg":97.3595,"raan_deg":226.1971,"arg_perigee_deg":75.0345,"mean_anomaly_deg":285.1248,"bstar":0.00027705,"rev_number":7534,"period_min":94.112873444743,"perigee_km":473.39694877907,"apogee_km":477.76413759758,"semimajor_km":6853.7175431883,"source":"CELESTRAK","updated_at":"2026-05-25T13:38:03.135205Z"}}